Volver al catálogo

FENGYUN 1C DEB

ActivoSSO
NORAD 30891·DEBRIS·🇨🇳 China

Lanzado May 10, 1999 desde Taiyuan Satellite Launch Center

Loading…

Próximos Pases (próximas 24 horas)

TLE

ActualizadoSource: Space-Track

Época: Sep 14, 2026, 21:49 UTC

1 30891U 99025AYD 26257.90935564  .00000339  00000-0  22774-3 0  9999
2 30891  98.7522 301.7636 0057183 132.2293  40.2568 14.06351926998635

Sigue FENGYUN 1C DEB en tiempo real con AllMySat

Download on the App Store